SCP
0 0 0 0 0 0 0 0 0 0 0 0 0 0 0 0 0 0 0 0 0 0 0 0 0 0 0 0 0 0 0 0 0 0 0 0 0 0 0 0 0 0 0
0 0 0 0 0 0 0 0 0 0 0 0 0 0 0 0 0 0 0 0 0 0 0 0 0 0 0 0 0 0 0 0 0 0 0 0 0 0 0 0 0 0 0
0 0 0 0 0 0 0 0 0 0 0 0 0 0 0 0 0 0 0 0 0 0 0 0 0 0 0 0 0 0 0 0 0 0 0 0 0 0 0 0 0 0 0
0 0 0 0 0 0 0 0 0 0 0 0 0 0 0 0 0 0 0 0 0 0 0 0 0 0 0 0 0 0 0 0 0 0 0 0 0 0 0 0 0 0 0
0 0 0 0 0 0 0 0 0 0 0 0 0 0 0 0 0 0 0 0 0 0 0 0 0 0 0 0 0 0 0 0 0 0 0 0 0 0 0 0 0 0 0
0 0 0 0 0 -0 0 0 0 0 0 0 0 0 0 0 0 0 0 0 0 0 0 0 0 0 0 0 0 0 0 0 0 0 0 0 0 0 0 0 0 0 0
0 0 0 0 0 -0 -0 0 0 0 0 0 0 0 0 0 0 0 0 0 0 0 0 0 0 0 0 0 0 0 0 0 0 0 0 0 0 0 0 0 0 0 0
0 0 0 0 0 -0 -0 -0 0 0 0 0 0 0 0 0 0 0 0 0 0 0 0 0 0 0 0 0 0 0 0 0 0 0 0 0 0 0 0 0 0 0 0
0 0 0 0 0 0 0 0 0 0 0 0 0 0 0 0 0 0 0 0 0 0 0 0 0 0 0 0 0 0 0 0 0 0 0 0 0 0 0 0 0 0 0
0 0 0 0 0 0 0 0 0 0 0 0 0 0 0 0 0 0 0 0 0 0 0 0 0 0 0 0 0 0 0 0 0 0 0 0 0 0 0 0 0 0 0
0 0 0 0 0 0 0 0 0 0 0 0 0 0 0 0 0 0 0 0 0 0 0 0 0 0 0 0 0 0 0 0 0 0 0 0 0 0 0 0 0 0 0
0 0 0 0 0 0 0 0 0 0 0 0 0 0 0 0 0 0 0 0 0 0 0 0 0 0 0 0 0 0 0 0 0 0 0 0 0 0 0 0 0 0 0
0 0 0 0 0 0 0 0 0 0 0 0 0 0 0 0 0 0 0 0 0 0 0 0 0 0 0 0 0 0 0 0 0 0 0 0 0 0 0 0 0 0 0
0 0 0 0 0 0 0 0 0 0 0 0 0 0 0 0 0 0 0 0 0 0 0 0 0 0 0 0 0 0 0 0 0 0 0 0 0 0 0 0 0 0 0
0 0 0 0 0 0 0 0 0 0 0 0 0 0 0 0 0 0 0 0 0 0 0 0 0 0 0 0 0 0 0 0 0 0 0 0 0 0 0 0 0 0 0
0 0 0 0 0 0 0 0 0 0 0 0 0 0 0 0 0 0 0 0 0 0 0 0 0 0 0 0 0 0 0 0 0 0 0 0 0 0 0 0 0 0 0
0 0 0 0 0 0 0 0 0 0 0 0 0 0 0 0 0 0 0 0 0 0 0 0 0 0 0 0 0 0 0 0 0 0 0 0 0 0 0 0 0 0 0
0 0 0 0 0 0 0 0 0 0 0 0 0 0 0 0 0 0 0 0 0 0 0 0 0 0 0 0 0 0 0 0 0 0 0 0 0 0 0 0 0 0 0
0 0 0 0 0 0 0 0 0 0 0 0 0 0 0 0 0 0 0 0 0 0 0 0 0 0 0 0 0 0 0 0 0 0 0 0 0 0 0 0 0 0 0
0 0 0 0 0 0 0 0 0 0 0 0 0 0 0 0 0 0 0 0 0 0 0 0 0 0 0 0 0 0 0 0 0 0 0 0 0 0 0 0 0 0 0
0 0 0 0 0 0 0 0 0 0 0 0 0 0 0 0 0 0 0 0 0 0 0 0 0 0 0 0 0 0 0 0 0 0 0 0 0 0 0 0 0 0 0
0 0 0 0 0 0 0 0 0 0 0 0 0 0 0 0 0 0 0 0 0 0 0 0 0 0 0 0 0 0 0 0 0 0 0 0 0 0 0 0 0 0 0
0 0 0 0 0 0 0 0 0 0 0 0 0 0 0 0 0 0 0 0 0 0 0 0 0 0 0 0 0 0 0 0 0 0 0 0 0 0 0 0 0 0 0
0 0 0 0 0 0 0 0 0 0 0 0 0 0 0 0 0 0 0 0 0 0 0 0 0 0 0 0 0 0 0 0 0 0 0 0 0 0 0 0 0 0 0
0 0 0 0 0 0 0 0 0 0 0 0 0 0 0 0 0 0 0 0 0 0 0 0 0 0 0 0 0 0 0 0 0 0 0 0 0 0 0 0 0 0 0
0 0 0 0 0 0 0 0 0 0 0 0 0 0 0 0 0 0 0 0 0 0 0 0 0 0 0 0 0 0 0 0 0 0 0 0 0 0 0 0 0 0 0
Wind_Speed
7 4 4 4 3 3 3 3 3 2 1 1 1 1 2 2 3 3 4 5 4 4 4 4 4 3 3 3 3 2 3 2 1 2 3 4 4 5 5 4 5 5 5
4 4 4 3 4 4 4 4 4 3 3 2 2 2 2 2 3 3 4 4 5 5 4 4 4 4 3 3 3 2 2 2 1 1 1 3 3 3 4 4 5 5 4
8 6 5 5 4 4 5 4 4 4 4 3 1 1 1 2 2 3 3 4 4 5 5 5 4 4 3 4 4 3 4 3 2 3 2 2 3 3 3 4 4 4 4
6 6 6 5 6 6 4 4 4 4 4 3 2 3 3 4 5 3 3 4 4 5 5 5 5 5 4 4 4 4 4 4 4 3 3 4 3 3 4 3 3 4 5
7 7 7 7 6 4 4 4 3 4 3 3 3 3 4 4 4 3 4 5 4 5 5 5 5 5 4 5 5 5 5 5 5 4 3 4 4 4 4 6 4 3 4
6 5 4 4 3 3 3 3 3 4 3 3 4 4 5 5 5 5 5 5 4 4 5 5 5 5 5 6 6 6 6 6 6 5 5 4 4 4 4 6 6 6 4
5 5 4 4 4 3 3 3 4 5 4 4 5 5 6 6 6 6 5 5 5 4 5 5 5 5 6 6 6 6 7 7 8 7 6 6 6 5 5 6 6 6 5
5 5 6 5 5 4 4 4 4 5 5 5 5 5 5 5 5 6 5 6 5 6 6 6 6 7 7 7 6 6 7 7 8 8 8 6 7 6 6 6 5 6 6
5 5 4 4 4 5 5 5 5 5 5 5 5 5 5 5 6 6 6 5 5 5 6 6 7 7 7 7 7 6 7 7 7 8 8 7 6 6 6 6 6 6 7
4 4 4 4 4 5 5 4 5 6 6 5 5 5 5 5 5 5 6 6 6 6 6 7 7 7 7 7 7 6 7 7 7 6 7 8 7 6 6 6 6 6 7
4 4 4 4 4 4 4 4 5 5 5 5 5 4 5 5 5 5 6 6 6 6 7 7 7 7 7 7 7 7 7 8 8 8 8 9 8 7 6 6 6 6 6
4 3 3 3 3 4 4 4 4 5 5 4 4 4 4 4 5 6 6 6 6 6 7 7 7 7 7 7 7 8 8 9 9 9 9 9 8 9 7 6 7 6 6
3 3 3 3 4 4 4 4 4 4 4 3 3 4 4 4 5 6 6 6 6 6 6 6 7 7 8 7 8 8 9 9 9 9 9 10 9 9 7 7 7 6 6
4 3 4 4 4 4 4 3 3 3 3 3 3 4 4 5 6 6 6 6 6 6 6 6 7 7 7 8 8 8 8 8 9 9 9 9 9 10 9 8 8 7 6
5 5 4 5 4 4 3 3 3 3 3 3 3 4 5 5 5 5 5 5 6 6 6 6 7 7 7 7 8 7 8 8 8 8 8 9 10 12 10 8 7 7 6
6 5 5 5 4 4 3 3 3 3 2 3 4 4 4 5 5 5 5 5 6 6 6 6 7 7 7 12 14 11 7 7 7 8 8 8 9 11 14 15 13 11 9
6 6 5 5 4 4 3 4 4 3 2 3 4 4 4 5 5 6 5 5 5 5 6 7 7 8 10 14 14 14 8 7 7 7 7 7 7 9 7 10 12 12 14
6 5 5 4 4 3 3 2 2 2 3 3 4 4 4 5 5 5 5 6 5 5 6 7 7 7 10 14 13 13 8 6 7 7 7 6 6 6 6 6 6 6 7
5 4 4 3 3 3 2 2 2 2 3 4 4 4 5 5 5 5 6 5 5 6 6 6 6 7 9 12 12 12 5 5 6 6 6 6 6 9 10 6 5 5 5
3 2 2 2 2 2 2 1 3 3 4 5 5 5 5 5 6 6 6 5 5 6 6 6 6 7 7 10 12 12 5 5 5 5 5 7 7 8 9 6 5 6 5
3 3 2 2 2 2 1 2 3 4 5 4 4 5 5 5 5 5 5 5 6 6 6 7 6 6 8 10 11 11 5 4 5 5 4 4 7 9 9 8 5 7 5
4 3 3 3 3 2 1 2 4 4 4 4 4 4 4 4 4 4 5 5 5 6 6 6 7 5 5 8 9 11 9 8 5 5 4 3 7 8 8 6 5 5 4
4 3 3 3 3 3 1 2 4 4 4 4 4 5 5 4 4 4 5 5 4 5 6 6 6 6 5 5 10 11 10 10 6 4 6 6 7 8 5 4 4 3 1
3 3 3 3 4 4 3 3 4 4 3 4 5 4 4 5 4 4 4 4 4 5 6 6 6 6 6 5 4 4 5 7 5 4 5 6 6 4 3 3 2 0 1
4 3 3 3 4 4 4 4 4 3 4 4 4 4 4 4 4 4 4 4 4 5 6 5 5 6 6 7 10 8 5 4 4 4 3 2 2 2 2 2 2 1 1
3 4 4 3 4 4 4 4 3 3 3 4 4 3 3 4 4 4 5 6 7 10 10 9 8 6 8 11 11 11 10 8 7 4 2 2 2 2 2 1 1 1 1
Wind_Direction
242 230 217 203 193 198 206 211 213 227 208 234 258 268 270 271 271 263 262 260 255 253 252 263 267 255 254 259 253 252 259 262 253 291 295 281 254 243 238 235 233 237 238
241 230 219 203 201 208 215 218 222 230 229 228 231 231 242 255 260 268 269 261 261 260 259 253 258 253 251 259 253 236 248 260 218 223 297 309 301 258 241 235 232 233 233
218 218 216 216 214 224 222 224 234 239 243 239 253 290 302 301 289 278 272 264 262 262 257 255 255 253 243 249 251 234 231 246 240 210 205 242 266 300 263 234 237 231 231
214 211 212 217 221 227 230 238 245 245 247 236 231 236 250 262 260 264 269 277 265 263 259 252 249 250 247 249 252 245 227 231 242 241 229 229 234 258 295 278 252 249 239
212 210 211 216 222 222 228 246 256 257 254 247 235 239 252 258 271 276 277 278 275 265 260 254 250 248 247 247 247 251 238 229 230 230 234 239 244 235 248 276 278 270 247
222 219 215 216 228 232 238 250 257 263 261 254 248 238 249 261 273 278 276 275 273 268 262 257 251 251 249 246 247 245 243 235 232 232 230 231 232 225 233 255 267 271 264
210 213 215 224 231 232 239 251 256 267 269 261 255 246 247 249 254 263 265 271 274 272 266 262 254 253 252 252 249 247 246 239 234 234 236 238 243 237 238 248 262 271 276
211 217 219 219 224 229 232 240 251 262 267 264 263 257 250 248 254 256 259 262 265 266 266 263 261 258 256 257 254 254 249 245 238 241 239 242 244 239 234 236 248 269 275
220 224 228 227 225 229 237 236 245 258 266 266 266 262 253 249 256 263 260 262 264 269 267 265 265 262 258 256 253 254 252 250 243 241 241 244 246 243 241 233 224 241 263
235 236 238 238 236 238 248 249 245 252 261 265 262 267 262 260 262 265 267 267 268 267 269 269 267 265 264 260 256 259 254 250 250 242 241 246 249 245 241 233 231 233 246
242 243 247 249 252 256 252 250 252 260 266 266 264 269 274 274 273 271 271 270 271 269 265 266 267 266 265 263 258 258 258 252 254 249 243 245 246 245 245 235 231 235 237
259 258 257 266 267 259 259 253 253 257 263 265 267 269 275 280 282 280 279 277 276 272 267 266 265 265 265 262 258 259 258 254 254 253 247 248 245 241 241 238 234 236 239
275 277 273 270 269 268 264 258 257 261 268 271 272 277 278 281 283 284 284 284 282 277 272 269 267 267 266 266 262 259 259 255 253 251 250 248 242 241 240 239 236 235 241
274 275 276 276 277 278 270 263 269 269 278 284 280 280 279 278 280 286 288 286 286 283 278 273 270 269 269 267 266 263 259 258 257 252 249 251 242 239 237 238 236 233 236
278 271 270 276 279 280 279 270 275 281 284 288 286 281 283 284 287 290 292 289 286 286 283 282 283 282 278 271 274 270 265 263 265 262 254 250 252 250 244 242 233 228 232
267 271 276 277 273 268 274 281 281 282 282 280 279 283 287 292 294 295 295 294 291 291 291 289 287 287 285 288 286 285 274 268 264 266 263 257 255 257 254 254 249 237 232
268 269 269 267 266 263 259 262 270 282 283 281 284 289 293 294 294 296 298 295 295 294 292 289 288 287 288 292 290 290 285 275 269 265 265 263 257 260 252 254 256 249 246
273 272 271 276 283 281 279 277 287 289 289 291 294 296 296 293 294 294 292 294 293 291 292 293 290 289 291 297 297 298 291 281 276 270 265 261 260 254 253 250 245 241 243
274 272 271 275 289 292 294 304 304 302 297 292 291 292 293 296 299 295 292 292 295 296 294 294 295 293 292 296 298 300 286 282 282 277 267 258 255 253 259 256 250 250 250
307 307 317 332 325 315 338 335 303 304 295 290 290 293 292 293 295 294 297 299 298 296 299 300 298 294 292 294 301 303 293 290 290 287 275 264 261 259 263 251 240 246 246
331 338 347 342 318 323 356 334 311 298 294 302 303 299 297 296 296 300 303 305 305 306 306 304 302 298 295 297 302 303 296 288 292 290 287 276 271 272 276 270 251 242 242
343 349 354 341 342 352 2 329 310 308 317 319 315 310 306 306 310 310 309 309 309 309 310 309 308 306 303 309 311 310 305 301 296 294 295 294 290 290 291 286 257 246 247
338 344 350 344 343 352 355 311 310 325 329 327 318 318 321 318 315 312 310 313 313 311 312 312 311 314 315 315 319 324 326 320 308 299 298 300 296 296 296 294 277 257 202
335 337 346 342 330 334 334 311 316 327 329 324 319 320 322 323 325 322 315 314 313 310 309 310 311 314 317 321 324 324 325 326 325 323 322 327 331 328 328 327 322 311 147
330 337 333 319 316 325 328 328 329 336 332 324 318 321 322 322 323 319 313 310 302 299 302 301 303 310 314 318 324 323 322 321 314 319 331 349 349 351 356 0 5 72 123
334 337 329 321 317 323 323 327 333 336 330 324 324 322 319 317 319 322 322 320 313 317 316 313 309 310 311 317 323 327 328 326 321 329 348 343 336 327 330 341 346 36 129